JST634 YMAV-YBBN

Flight info

Callsign JST634
Flight time 2h 2m
Altitude 37000
Route AV W190 ML H66 LAGOB H252 BN
Aircraft A320/M-SDE3FGHIRWY/LB1

Departure

Time 2026-04-26 06:18
Airport Melbourne Avalon International Airport (YMAV)

Arrival

Time 2026-04-26 08:21
Airport Brisbane International Airport (YBBN)
Time Latitude Longitude Altitude Speed Heading
2026-04-26 05:45 -38.02711 144.47214 32 ft 0 kts
2026-04-26 06:06 -38.02732 144.47211 31 ft 3 kts
2026-04-26 06:06 -38.02754 144.47209 30 ft 4 kts 346°
2026-04-26 06:06 -38.02778 144.47223 31 ft 3 kts 324°
2026-04-26 06:07 -38.02785 144.47230 31 ft 0 kts 324°
2026-04-26 06:11 -38.02783 144.47226 32 ft 1 kts 305°
2026-04-26 06:11 -38.02783 144.47212 30 ft 3 kts 275°
2026-04-26 06:12 -38.02780 144.47183 32 ft 3 kts 281°
2026-04-26 06:12 -38.02779 144.47180 32 ft 0 kts 285°
2026-04-26 06:16 -38.02779 144.47178 32 ft 1 kts 286°
2026-04-26 06:16 -38.02771 144.47157 32 ft 4 kts 298°
2026-04-26 06:16 -38.02752 144.47116 32 ft 7 kts 297°
2026-04-26 06:17 -38.02741 144.47041 31 ft 10 kts 276°
2026-04-26 06:17 -38.02746 144.46954 30 ft 10 kts 231°
2026-04-26 06:17 -38.02888 144.46914 30 ft 46 kts 188°
2026-04-26 06:17 -38.03439 144.46821 36 ft 110 kts 187°
2026-04-26 06:18 -38.04368 144.46669 97 ft 151 kts 187°
2026-04-26 06:18 -38.05417 144.46497 702 ft 152 kts 188°
2026-04-26 06:18 -38.06456 144.46318 1331 ft 154 kts 191°
2026-04-26 06:18 -38.07538 144.46319 1925 ft 163 kts 165°
2026-04-26 06:19 -38.08470 144.47303 2224 ft 194 kts 121°
2026-04-26 06:19 -38.08615 144.49103 2503 ft 223 kts 73°
2026-04-26 06:19 -38.07699 144.50676 3037 ft 230 kts 31°
2026-04-26 06:19 -38.06283 144.51574 3971 ft 225 kts 17°
2026-04-26 06:20 -38.04802 144.52212 4914 ft 224 kts 14°
2026-04-26 06:20 -38.03309 144.52802 5800 ft 225 kts 14°
2026-04-26 06:20 -38.01827 144.53404 6615 ft 227 kts 15°
2026-04-26 06:20 -38.00307 144.54209 7132 ft 249 kts 25°
2026-04-26 06:21 -37.98726 144.55364 7561 ft 272 kts 27°
2026-04-26 06:21 -37.97082 144.56630 8326 ft 279 kts 28°
2026-04-26 06:21 -37.95418 144.57936 9231 ft 282 kts 27°
2026-04-26 06:21 -37.93764 144.59235 10111 ft 284 kts 27°
2026-04-26 06:22 -37.92022 144.60590 10506 ft 304 kts 27°
2026-04-26 06:22 -37.90144 144.62036 10718 ft 328 kts 27°
2026-04-26 06:22 -37.88141 144.63574 11107 ft 342 kts 27°
2026-04-26 06:22 -37.86108 144.65140 11768 ft 347 kts 27°
2026-04-26 06:23 -37.84033 144.66739 12471 ft 350 kts 27°
2026-04-26 06:23 -37.81940 144.68354 13213 ft 353 kts 27°
2026-04-26 06:23 -37.79823 144.69982 13972 ft 355 kts 27°
2026-04-26 06:23 -37.77727 144.71590 14628 ft 357 kts 27°
2026-04-26 06:24 -37.75590 144.73226 15293 ft 359 kts 27°
2026-04-26 06:24 -37.73440 144.74870 15958 ft 360 kts 27°
2026-04-26 06:24 -37.71310 144.76499 16618 ft 362 kts 27°
2026-04-26 06:24 -37.69149 144.78153 17287 ft 364 kts 27°
2026-04-26 06:25 -37.66970 144.79819 17975 ft 365 kts 27°
2026-04-26 06:25 -37.64787 144.81487 18657 ft 367 kts 27°
2026-04-26 06:25 -37.62588 144.83162 19205 ft 371 kts 27°
2026-04-26 06:25 -37.60387 144.84837 19715 ft 376 kts 27°
2026-04-26 06:26 -37.58123 144.86556 20230 ft 382 kts 27°
2026-04-26 06:26 -37.55820 144.88304 20731 ft 387 kts 27°
2026-04-26 06:26 -37.53516 144.90053 21203 ft 392 kts 27°
2026-04-26 06:26 -37.51163 144.91842 21676 ft 397 kts 27°
2026-04-26 06:27 -37.48779 144.93653 22136 ft 401 kts 27°
2026-04-26 06:27 -37.46393 144.95462 22574 ft 406 kts 27°
2026-04-26 06:27 -37.43954 144.97311 23006 ft 410 kts 27°
2026-04-26 06:27 -37.41482 144.99184 23440 ft 415 kts 27°
2026-04-26 06:28 -37.38996 145.01071 23844 ft 419 kts 28°
2026-04-26 06:28 -37.36525 145.02945 24228 ft 421 kts 27°
2026-04-26 06:28 -37.34002 145.04852 24609 ft 424 kts 28°
2026-04-26 06:28 -37.31458 145.06773 24978 ft 427 kts 28°
2026-04-26 06:29 -37.28894 145.08707 25343 ft 429 kts 28°
2026-04-26 06:29 -37.26322 145.10644 25702 ft 432 kts 28°
2026-04-26 06:29 -37.23761 145.12571 26049 ft 435 kts 28°
2026-04-26 06:29 -37.21154 145.14531 26401 ft 438 kts 28°
2026-04-26 06:30 -37.18524 145.16511 26762 ft 440 kts 28°
2026-04-26 06:30 -37.16778 145.17826 26984 ft 442 kts 28°
2026-04-26 06:30 -37.13263 145.20468 27451 ft 446 kts 28°
2026-04-26 06:30 -37.11458 145.21825 27675 ft 448 kts 28°
2026-04-26 06:31 -37.08804 145.23822 28013 ft 450 kts 29°
2026-04-26 06:31 -37.06232 145.26135 28331 ft 456 kts 37°
2026-04-26 06:31 -37.03806 145.28660 28655 ft 459 kts 37°
2026-04-26 06:31 -37.01338 145.31218 28955 ft 462 kts 37°
2026-04-26 06:32 -36.98851 145.33787 29259 ft 464 kts 37°
2026-04-26 06:32 -36.96350 145.36367 29704 ft 464 kts 37°
2026-04-26 06:32 -36.93853 145.38943 30168 ft 463 kts 37°
2026-04-26 06:32 -36.91391 145.41483 30564 ft 462 kts 37°
2026-04-26 06:33 -36.88907 145.44046 31011 ft 461 kts 37°
2026-04-26 06:33 -36.86432 145.46596 31447 ft 459 kts 37°
2026-04-26 06:33 -36.83992 145.49106 31895 ft 457 kts 37°
2026-04-26 06:33 -36.81536 145.51629 32354 ft 455 kts 37°
2026-04-26 06:34 -36.79086 145.54140 32801 ft 454 kts 37°
2026-04-26 06:34 -36.76676 145.56605 33244 ft 452 kts 37°
2026-04-26 06:34 -36.74244 145.59096 33701 ft 451 kts 37°
2026-04-26 06:34 -36.71815 145.61582 34143 ft 449 kts 37°
2026-04-26 06:35 -36.69387 145.64062 34525 ft 448 kts 37°
2026-04-26 06:35 -36.66998 145.66500 34870 ft 448 kts 37°
2026-04-26 06:35 -36.64581 145.68963 35198 ft 448 kts 37°
2026-04-26 06:35 -36.62157 145.71430 35521 ft 448 kts 37°
2026-04-26 06:36 -36.59733 145.73898 35843 ft 448 kts 37°
2026-04-26 06:36 -36.57345 145.76332 36147 ft 448 kts 37°
2026-04-26 06:36 -36.54923 145.78803 36450 ft 449 kts 37°
2026-04-26 06:36 -36.52508 145.81269 36737 ft 449 kts 37°
2026-04-26 06:37 -36.50093 145.83733 37032 ft 449 kts 37°
2026-04-26 06:37 -36.47695 145.86174 37166 ft 450 kts 37°
2026-04-26 06:37 -36.45261 145.88645 37195 ft 452 kts 37°
2026-04-26 06:38 -36.40403 145.93565 37196 ft 452 kts 37°
2026-04-26 06:38 -36.35510 145.98511 37193 ft 452 kts 37°
2026-04-26 06:39 -36.30642 146.03416 37190 ft 451 kts 37°
2026-04-26 06:39 -36.25771 146.08327 37195 ft 451 kts 37°
2026-04-26 06:40 -36.20888 146.13244 37198 ft 452 kts 37°
2026-04-26 06:40 -36.16033 146.18119 37194 ft 452 kts 37°
2026-04-26 06:41 -36.11145 146.23029 37212 ft 451 kts 37°
2026-04-26 06:41 -36.06286 146.27897 37217 ft 451 kts 37°
2026-04-26 06:42 -36.01409 146.32774 37216 ft 450 kts 37°
2026-04-26 06:42 -35.96528 146.37647 37221 ft 449 kts 37°
2026-04-26 06:43 -35.91686 146.42473 37223 ft 448 kts 37°
2026-04-26 06:43 -35.86854 146.47280 37224 ft 448 kts 37°
2026-04-26 06:44 -35.81980 146.52113 37222 ft 447 kts 37°
2026-04-26 06:44 -35.77157 146.56892 37214 ft 447 kts 37°
2026-04-26 06:45 -35.72301 146.61711 37218 ft 446 kts 37°
2026-04-26 06:45 -35.67483 146.66476 37221 ft 446 kts 37°
2026-04-26 06:46 -35.62638 146.71250 37219 ft 446 kts 37°
2026-04-26 06:46 -35.57783 146.76033 37222 ft 447 kts 37°
2026-04-26 06:47 -35.52954 146.80796 37220 ft 447 kts 37°
2026-04-26 06:47 -35.48097 146.85568 37230 ft 446 kts 37°
2026-04-26 06:48 -35.43279 146.90286 37221 ft 445 kts 37°
2026-04-26 06:48 -35.38429 146.95037 37223 ft 445 kts 37°
2026-04-26 06:49 -35.33582 146.99774 37229 ft 445 kts 37°
2026-04-26 06:49 -35.28756 147.04484 37223 ft 445 kts 37°
2026-04-26 06:50 -35.23912 147.09204 37223 ft 444 kts 37°
2026-04-26 06:50 -35.19087 147.13897 37224 ft 444 kts 37°
2026-04-26 06:51 -35.14226 147.18610 37228 ft 444 kts 37°
2026-04-26 06:51 -35.06990 147.25628 37229 ft 443 kts 37°
2026-04-26 06:52 -35.02142 147.30317 37217 ft 443 kts 37°
2026-04-26 06:52 -34.97328 147.34971 37223 ft 443 kts 37°
2026-04-26 06:53 -34.92466 147.39657 37223 ft 444 kts 37°
2026-04-26 06:53 -34.87652 147.44300 37216 ft 444 kts 37°
2026-04-26 06:54 -34.82808 147.48956 37217 ft 444 kts 37°
2026-04-26 06:54 -34.77940 147.53618 37214 ft 444 kts 37°
2026-04-26 06:55 -34.73081 147.58281 37222 ft 445 kts 37°
2026-04-26 06:55 -34.68241 147.62923 37218 ft 445 kts 37°
2026-04-26 06:56 -34.63363 147.67583 37227 ft 445 kts 37°
2026-04-26 06:56 -34.58478 147.72244 37231 ft 446 kts 37°
2026-04-26 06:57 -34.53591 147.76892 37235 ft 447 kts 37°
2026-04-26 06:57 -34.48728 147.81520 37236 ft 447 kts 37°
2026-04-26 06:58 -34.43819 147.86183 37241 ft 447 kts 37°
2026-04-26 06:58 -34.38944 147.90810 37240 ft 447 kts 37°
2026-04-26 06:59 -34.34039 147.95459 37234 ft 447 kts 37°
2026-04-26 06:59 -34.29153 148.00076 37225 ft 447 kts 37°
2026-04-26 07:00 -34.24261 148.04693 37234 ft 447 kts 37°
2026-04-26 07:00 -34.19347 148.09331 37233 ft 447 kts 37°
2026-04-26 07:01 -34.14421 148.13956 37234 ft 447 kts 37°
2026-04-26 07:01 -34.09533 148.18543 37236 ft 447 kts 37°
2026-04-26 07:02 -34.04615 148.23157 37225 ft 447 kts 37°
2026-04-26 07:02 -33.99721 148.27752 37226 ft 447 kts 37°
2026-04-26 07:03 -33.94796 148.32370 37223 ft 447 kts 37°
2026-04-26 07:03 -33.89899 148.36948 37232 ft 447 kts 37°
2026-04-26 07:04 -33.84960 148.41550 37225 ft 447 kts 37°
2026-04-26 07:04 -33.80048 148.46125 37227 ft 448 kts 37°
2026-04-26 07:05 -33.75142 148.50686 37226 ft 448 kts 37°
2026-04-26 07:05 -33.70181 148.55282 37224 ft 449 kts 37°
2026-04-26 07:06 -33.65246 148.59846 37228 ft 449 kts 37°
2026-04-26 07:06 -33.60305 148.64419 37230 ft 449 kts 37°
2026-04-26 07:07 -33.55334 148.69028 37229 ft 450 kts 37°
2026-04-26 07:07 -33.50399 148.73587 37237 ft 450 kts 37°
2026-04-26 07:08 -33.45419 148.78166 37238 ft 450 kts 37°
2026-04-26 07:08 -33.40467 148.82725 37243 ft 451 kts 37°
2026-04-26 07:09 -33.35482 148.87316 37236 ft 451 kts 37°
2026-04-26 07:09 -33.30529 148.91858 37238 ft 451 kts 37°
2026-04-26 07:11 -33.18071 149.03252 37245 ft 451 kts 37°
2026-04-26 07:11 -33.13068 149.07822 37242 ft 451 kts 37°
2026-04-26 07:12 -33.08102 149.12356 37232 ft 452 kts 37°
2026-04-26 07:12 -33.03085 149.16915 37226 ft 452 kts 36°
2026-04-26 07:13 -32.98104 149.21444 37234 ft 452 kts 37°
2026-04-26 07:13 -32.93089 149.25998 37233 ft 452 kts 37°
2026-04-26 07:14 -32.88073 149.30546 37234 ft 452 kts 36°
2026-04-26 07:14 -32.83081 149.35056 37237 ft 452 kts 36°
2026-04-26 07:15 -32.78904 149.38825 37242 ft 453 kts 36°
2026-04-26 07:15 -32.73061 149.44094 37239 ft 453 kts 36°
2026-04-26 07:16 -32.68877 149.47863 37242 ft 453 kts 36°
2026-04-26 07:16 -32.63848 149.52395 37246 ft 453 kts 36°
2026-04-26 07:17 -32.58846 149.56890 37249 ft 454 kts 36°
2026-04-26 07:17 -32.53784 149.61392 37247 ft 454 kts 35°
2026-04-26 07:18 -32.48653 149.65725 37240 ft 454 kts 34°
2026-04-26 07:18 -32.43468 149.70018 37239 ft 454 kts 34°
2026-04-26 07:19 -32.38289 149.74339 37237 ft 455 kts 34°
2026-04-26 07:19 -32.33142 149.78665 37236 ft 455 kts 34°
2026-04-26 07:20 -32.28002 149.82991 37246 ft 455 kts 34°
2026-04-26 07:20 -32.22826 149.87336 37248 ft 455 kts 34°
2026-04-26 07:21 -32.17666 149.91645 37247 ft 456 kts 34°
2026-04-26 07:21 -32.12460 149.95984 37244 ft 457 kts 34°
2026-04-26 07:22 -32.07261 150.00321 37244 ft 457 kts 34°
2026-04-26 07:22 -32.02083 150.04625 37245 ft 457 kts 34°
2026-04-26 07:23 -31.96860 150.08961 37254 ft 458 kts 34°
2026-04-26 07:23 -31.91663 150.13274 37249 ft 458 kts 34°
2026-04-26 07:24 -31.86443 150.17591 37249 ft 458 kts 34°
2026-04-26 07:24 -31.81248 150.21896 37246 ft 458 kts 34°
2026-04-26 07:25 -31.76013 150.26230 37240 ft 458 kts 34°
2026-04-26 07:25 -31.70815 150.30523 37234 ft 459 kts 34°
2026-04-26 07:26 -31.65596 150.34823 37236 ft 459 kts 34°
2026-04-26 07:26 -31.60344 150.39142 37228 ft 460 kts 34°
2026-04-26 07:27 -31.55108 150.43441 37220 ft 460 kts 34°
2026-04-26 07:27 -31.49877 150.47736 37225 ft 460 kts 34°
2026-04-26 07:28 -31.44606 150.52057 37223 ft 461 kts 34°
2026-04-26 07:28 -31.39379 150.56342 37211 ft 461 kts 34°
2026-04-26 07:29 -31.34113 150.60642 37208 ft 461 kts 34°
2026-04-26 07:29 -31.28829 150.64948 37209 ft 461 kts 34°
2026-04-26 07:30 -31.23582 150.69227 37206 ft 461 kts 34°
2026-04-26 07:30 -31.18325 150.73505 37207 ft 461 kts 34°
2026-04-26 07:31 -31.13034 150.77805 37203 ft 461 kts 34°
2026-04-26 07:31 -31.07750 150.82089 37199 ft 462 kts 34°
2026-04-26 07:32 -31.02875 150.86925 37199 ft 463 kts 41°
2026-04-26 07:32 -30.98082 150.91926 37201 ft 463 kts 41°
2026-04-26 07:33 -30.93250 150.96937 37202 ft 464 kts 40°
2026-04-26 07:33 -30.88446 151.01916 37214 ft 464 kts 41°
2026-04-26 07:34 -30.83604 151.06946 37220 ft 465 kts 41°
2026-04-26 07:34 -30.78794 151.11929 37232 ft 465 kts 41°
2026-04-26 07:35 -30.73951 151.16939 37227 ft 466 kts 41°
2026-04-26 07:35 -30.69111 151.21940 37235 ft 466 kts 41°
2026-04-26 07:36 -30.64247 151.26958 37239 ft 466 kts 41°
2026-04-26 07:36 -30.59386 151.31970 37238 ft 466 kts 40°
2026-04-26 07:37 -30.54555 151.36944 37250 ft 467 kts 40°
2026-04-26 07:37 -30.49679 151.41958 37240 ft 467 kts 41°
2026-04-26 07:38 -30.44804 151.46962 37253 ft 467 kts 40°
2026-04-26 07:38 -30.39921 151.51957 37253 ft 467 kts 40°
2026-04-26 07:39 -30.35074 151.56915 37243 ft 468 kts 40°
2026-04-26 07:39 -30.30166 151.61928 37259 ft 469 kts 40°
2026-04-26 07:40 -30.25299 151.66897 37266 ft 469 kts 40°
2026-04-26 07:40 -30.20390 151.71905 37273 ft 469 kts 40°
2026-04-26 07:41 -30.15509 151.76875 37272 ft 469 kts 40°
2026-04-26 07:41 -30.10607 151.81843 37280 ft 469 kts 40°
2026-04-26 07:42 -30.05697 151.86829 37279 ft 469 kts 40°
2026-04-26 07:42 -30.00778 151.91816 37280 ft 469 kts 40°
2026-04-26 07:43 -29.95895 151.96760 37276 ft 469 kts 40°
2026-04-26 07:43 -29.90974 152.01738 37272 ft 469 kts 40°
2026-04-26 07:44 -29.86074 152.06684 37272 ft 470 kts 40°
2026-04-26 07:44 -29.81140 152.11650 37275 ft 470 kts 40°
2026-04-26 07:45 -29.76209 152.16616 37272 ft 470 kts 40°
2026-04-26 07:45 -29.71295 152.21558 37269 ft 471 kts 40°
2026-04-26 07:46 -29.66339 152.26526 37276 ft 472 kts 40°
2026-04-26 07:46 -29.61395 152.31471 37279 ft 472 kts 40°
2026-04-26 07:47 -29.56437 152.36434 37278 ft 472 kts 40°
2026-04-26 07:47 -29.51501 152.41377 37264 ft 472 kts 39°
2026-04-26 07:48 -29.46530 152.46339 37265 ft 473 kts 39°
2026-04-26 07:48 -29.42342 152.52034 37271 ft 474 kts 66°
2026-04-26 07:48 -29.41367 152.55635 37267 ft 472 kts 83°
2026-04-26 07:49 -29.41305 152.59382 37269 ft 468 kts 99°
2026-04-26 07:49 -29.42348 152.66753 37251 ft 468 kts 102°
2026-04-26 07:50 -29.44036 152.77769 37246 ft 469 kts 102°
2026-04-26 07:50 -29.45176 152.85174 37259 ft 470 kts 102°
2026-04-26 07:51 -29.46319 152.92525 37258 ft 470 kts 102°
2026-04-26 07:51 -29.46719 152.96254 37253 ft 471 kts 91°
2026-04-26 07:51 -29.46341 152.99986 37250 ft 472 kts 75°
2026-04-26 07:52 -29.45126 153.03496 37245 ft 472 kts 59°
2026-04-26 07:52 -29.43193 153.06465 37229 ft 470 kts 43°
2026-04-26 07:52 -29.40635 153.08777 37223 ft 466 kts 27°
2026-04-26 07:52 -29.37678 153.10241 37219 ft 461 kts 12°
2026-04-26 07:53 -29.34531 153.10790 37219 ft 455 kts 357°
2026-04-26 07:53 -29.31421 153.10531 37219 ft 452 kts 350°
2026-04-26 07:53 -29.25144 153.09712 37215 ft 454 kts 350°
2026-04-26 07:54 -29.18862 153.08879 37212 ft 456 kts 350°
2026-04-26 07:54 -29.12528 153.08052 37224 ft 456 kts 350°
2026-04-26 07:55 -29.06248 153.07242 37228 ft 456 kts 350°
2026-04-26 07:55 -28.99953 153.06429 37234 ft 456 kts 350°
2026-04-26 07:56 -28.93635 153.05602 37235 ft 457 kts 350°
2026-04-26 07:56 -28.87265 153.05170 37234 ft 461 kts
2026-04-26 07:57 -28.80912 153.06498 37246 ft 466 kts
2026-04-26 07:57 -28.74625 153.08129 37249 ft 466 kts
2026-04-26 07:58 -28.69344 153.09481 37252 ft 466 kts
2026-04-26 07:58 -28.62998 153.11114 36939 ft 466 kts
2026-04-26 07:59 -28.58787 153.12203 35953 ft 469 kts
2026-04-26 07:59 -28.56652 153.12754 35386 ft 472 kts
2026-04-26 07:59 -28.53427 153.13584 34543 ft 476 kts
2026-04-26 07:59 -28.50203 153.14411 33537 ft 482 kts
2026-04-26 08:00 -28.46913 153.15256 32498 ft 486 kts 10°
2026-04-26 08:00 -28.43597 153.16109 31476 ft 489 kts 10°
2026-04-26 08:00 -28.40256 153.16967 30346 ft 493 kts 10°
2026-04-26 08:00 -28.36916 153.17825 28994 ft 498 kts 10°
2026-04-26 08:01 -28.33525 153.18696 27799 ft 498 kts 11°
2026-04-26 08:01 -28.30154 153.19563 27120 ft 488 kts 11°
2026-04-26 08:01 -28.26885 153.20403 26304 ft 483 kts 11°
2026-04-26 08:01 -28.23611 153.21243 25506 ft 478 kts 11°
2026-04-26 08:02 -28.20369 153.22070 24742 ft 473 kts 12°
2026-04-26 08:02 -28.17149 153.22806 24008 ft 468 kts
2026-04-26 08:02 -28.13983 153.23405 23200 ft 463 kts
2026-04-26 08:02 -28.10800 153.23921 22496 ft 456 kts
2026-04-26 08:03 -28.07671 153.24394 21780 ft 449 kts
2026-04-26 08:03 -28.04624 153.24859 21105 ft 443 kts
2026-04-26 08:03 -28.01593 153.25344 20453 ft 436 kts
2026-04-26 08:03 -27.98598 153.25849 19812 ft 431 kts 10°
2026-04-26 08:04 -27.95647 153.26364 19204 ft 426 kts 10°
2026-04-26 08:04 -27.92729 153.26878 18623 ft 421 kts 11°
2026-04-26 08:04 -27.89880 153.27380 18005 ft 416 kts 10°
2026-04-26 08:04 -27.87029 153.27880 17431 ft 411 kts 10°
2026-04-26 08:05 -27.84201 153.28370 16842 ft 407 kts 10°
2026-04-26 08:05 -27.81413 153.28852 16248 ft 403 kts 10°
2026-04-26 08:05 -27.78657 153.29327 15643 ft 399 kts 11°
2026-04-26 08:05 -27.75955 153.29792 15038 ft 395 kts 11°
2026-04-26 08:06 -27.73250 153.30258 14410 ft 392 kts 11°
2026-04-26 08:06 -27.70559 153.30725 13747 ft 389 kts 11°
2026-04-26 08:06 -27.67889 153.31187 13086 ft 384 kts 11°
2026-04-26 08:06 -27.65267 153.31637 12455 ft 379 kts 11°
2026-04-26 08:07 -27.62670 153.31911 11710 ft 378 kts
2026-04-26 08:07 -27.60020 153.32047 10853 ft 381 kts
2026-04-26 08:07 -27.57441 153.32163 10639 ft 356 kts
2026-04-26 08:07 -27.55062 153.32262 10480 ft 326 kts
2026-04-26 08:08 -27.52868 153.32355 10249 ft 307 kts
2026-04-26 08:08 -27.50787 153.32452 10004 ft 300 kts
2026-04-26 08:08 -27.48714 153.32555 9841 ft 297 kts
2026-04-26 08:08 -27.46651 153.32659 9714 ft 296 kts
2026-04-26 08:09 -27.44589 153.32760 9563 ft 296 kts
2026-04-26 08:09 -27.42532 153.32861 9445 ft 295 kts
2026-04-26 08:09 -27.40479 153.32960 9319 ft 295 kts
2026-04-26 08:09 -27.38454 153.33059 9207 ft 294 kts
2026-04-26 08:10 -27.36406 153.33211 9062 ft 292 kts 12°
2026-04-26 08:10 -27.34461 153.33816 8809 ft 287 kts 26°
2026-04-26 08:10 -27.32656 153.34742 8507 ft 284 kts 28°
2026-04-26 08:10 -27.30856 153.35671 8228 ft 283 kts 28°
2026-04-26 08:11 -27.29092 153.36577 7948 ft 282 kts 28°
2026-04-26 08:11 -27.27306 153.37489 7659 ft 280 kts 28°
2026-04-26 08:11 -27.25522 153.38400 7374 ft 279 kts 28°
2026-04-26 08:11 -27.23747 153.39309 7091 ft 279 kts 28°
2026-04-26 08:12 -27.21984 153.40142 6818 ft 280 kts 19°
2026-04-26 08:12 -27.20036 153.40390 6525 ft 284 kts 359°
2026-04-26 08:12 -27.18106 153.39847 6203 ft 289 kts 337°
2026-04-26 08:12 -27.16445 153.38587 5893 ft 286 kts 321°
2026-04-26 08:13 -27.14944 153.37167 5595 ft 278 kts 319°
2026-04-26 08:13 -27.13793 153.35512 5300 ft 270 kts 294°
2026-04-26 08:13 -27.13334 153.33526 5008 ft 258 kts 269°
2026-04-26 08:13 -27.13580 153.31591 4709 ft 244 kts 245°
2026-04-26 08:14 -27.14268 153.29912 4478 ft 230 kts 239°
2026-04-26 08:14 -27.14930 153.28346 4250 ft 218 kts 239°
2026-04-26 08:14 -27.15572 153.26850 4079 ft 206 kts 234°
2026-04-26 08:14 -27.16439 153.25643 4011 ft 194 kts 212°
2026-04-26 08:15 -27.17550 153.24836 3991 ft 189 kts 203°
2026-04-26 08:15 -27.18719 153.24135 3962 ft 190 kts 201°
2026-04-26 08:15 -27.19892 153.23459 3795 ft 189 kts 200°
2026-04-26 08:15 -27.21071 153.22786 3565 ft 188 kts 200°
2026-04-26 08:16 -27.22235 153.22122 3328 ft 186 kts 200°
2026-04-26 08:16 -27.23372 153.21474 3093 ft 185 kts 200°
2026-04-26 08:16 -27.24511 153.20824 2846 ft 181 kts 200°
2026-04-26 08:16 -27.25607 153.20198 2610 ft 172 kts 200°
2026-04-26 08:17 -27.26644 153.19605 2385 ft 162 kts 199°
2026-04-26 08:17 -27.27625 153.19045 2169 ft 152 kts 199°
2026-04-26 08:17 -27.28521 153.18534 1989 ft 139 kts 198°
2026-04-26 08:17 -27.29364 153.18053 1805 ft 132 kts 199°
2026-04-26 08:18 -27.30183 153.17587 1634 ft 129 kts 199°
2026-04-26 08:18 -27.30981 153.17133 1459 ft 128 kts 198°
2026-04-26 08:18 -27.31766 153.16685 1290 ft 127 kts 200°
2026-04-26 08:18 -27.32556 153.16235 1114 ft 127 kts 200°
2026-04-26 08:19 -27.33345 153.15785 945 ft 126 kts 200°
2026-04-26 08:19 -27.34140 153.15332 782 ft 129 kts 199°
2026-04-26 08:19 -27.34935 153.14878 599 ft 131 kts 202°
2026-04-26 08:19 -27.35746 153.14414 411 ft 132 kts 203°
2026-04-26 08:20 -27.36585 153.13935 238 ft 136 kts 204°
2026-04-26 08:20 -27.37440 153.13447 87 ft 138 kts 205°
2026-04-26 08:20 -27.38251 153.12987 23 ft 112 kts 207°
2026-04-26 08:20 -27.38784 153.12679 21 ft 50 kts 206°
2026-04-26 08:21 -27.38940 153.12550 20 ft 25 kts 229°
2026-04-26 08:21 -27.39032 153.12415 23 ft 15 kts 237°
2026-04-26 08:21 -27.39083 153.12324 21 ft 13 kts 237°
2026-04-26 08:21 -27.39136 153.12226 21 ft 15 kts 248°
2026-04-26 08:22 -27.39083 153.12148 24 ft 15 kts 353°
2026-04-26 08:22 -27.38980 153.12202 24 ft 18 kts 26°
2026-04-26 08:22 -27.38859 153.12268 23 ft 19 kts 26°
2026-04-26 08:22 -27.38738 153.12339 21 ft 14 kts 27°
2026-04-26 08:23 -27.38676 153.12315 21 ft 9 kts 283°
2026-04-26 08:23 -27.38701 153.12274 23 ft 1 kts 208°
2026-04-26 08:23 -27.38708 153.12264 22 ft 2 kts 240°
2026-04-26 08:23 -27.38700 153.12239 21 ft 4 kts 308°
2026-04-26 08:24 -27.38689 153.12228 21 ft 1 kts 320°
2026-04-26 08:24 -27.38682 153.12221 21 ft 1 kts 322°
2026-04-26 08:24 -27.38680 153.12220 21 ft 0 kts 322°